CZ-3B DEB, 40849

Orbit data source: Space-Track

CZ-3B DEB, 40849 is space debris in HEO originally from a launch on Mon, 19 Dec 2011 UTC launched from the Xichang Space Center, China (XSC). Debris objects in space refer to the collection of defunct objects orbiting the Earth. Examples of debris include non-operational satellites, rocket bodies, and fragments generated from explosions, collisions, or faulty payload assembly.

Loading next visibility...
Identifier
40849, 2011-077AE
Orbit
HEO
Last TLE update
1 week ago
Origin
Manufacturer
CALT
Mission
Spacecraft
Bus & Motor
Unknown
Mass
Unknown
Launch date (UTC)
2011-12-19 (13 years ago)
Launch vehicle
Unknown
Launch site
Xichang Space Center, China (XSC)
Object type
Payload
Rocket body
Debris
Shape & HBR
Unknown
Radar Cross Section
Medium (>0.1 m² and <1 m²)

Expand to show TLE details & history

TLE from 1 week ago
0 CZ-3B DEB
1 40849U 11077AE  25122.20505442 -.00000292  00000-0  24362-2 0  9998
2 40849  25.7263  94.5937 7364709 240.6414  28.4883  1.90641990 84101
Epoch: 2025-05-02T04:55Z
Definitive object data (Epoch: 2025-05-02T04:55:16.701Z)
Latitude
0.00002°
Longitude
160.25947°
Altitude
13,295.189 km
Speed
5.1 km/s
True Right ascension
06h 17m 46s
True Declination
0° 00' 00"
Sunlit
Object was in daylight at TLE epoch
Visualization TLE readout
Latitude
23.14851°
Longitude
-138.93208°
Altitude
41,277.045 km
Speed
1.49 km/s
Apparent Right ascension
09h 58m 03s
Apparent Declination
19° 28' 46"
Sunlit
Object is in daylight
Visualization observer readout
Local Sidereal Time
14:11:46
Azimuth
268.993° W
Elevation
32.508°
Doppler factor
1
Orbital elements
Apogee altitude
41,336.245 km
Perigee altitude
863.06 km
Semi-major axis
27,477.789 km
Eccentricity
0.7364709
Inclination
25.7263°
RAAN
94.5937°
Arg. of periapsis
240.6414°
True anomaly
119.47789°
Mean anomaly
28.4883°
Eccentric anomaly
67.46231°
Mean motion
0.47651 °/min
BSTAR
0.0024362
Orbital period
755.5 mins
Loading maneuver chart data...
Loading SW <> Apogee altitude chart data...
Loading historical data...
Loading historical data...
Loading historical data...
Loading historical data...
Loading historical data...
Loading historical data...
Loading historical data...

CZ-3B DEB Visibility forecast

Observer location: undefined°, undefined°

Span
Click to sort rows by Start time (UTC) header in descending order
Start Az.
Max El. time (UTC)
Max El. Az.
Max El.
End time (UTC)
End Az.
273 mins2025-05-09 06:03:00.186Z268.977° W2025-05-09 06:03:00.186Z268.977° W28.251°2025-05-09 10:36:00.186Z282.46° WNW
254 mins2025-05-10 01:49:00.186Z246.066° WSW2025-05-10 03:43:00.186Z255.936° W28.072°2025-05-10 06:03:00.186Z272.947° WNW
|